Time,TemperatureF,DewpointF,PressureIn,WindDirection,WindDirectionDegrees,WindSpeedMPH,WindSpeedGustMPH,Humidity,HourlyPrecipIn,Conditions,Clouds,dailyrainin,SolarRadiationWatts/m^2,SoftwareType,DateUTC
2013-12-06 00:02:00,52.0,52.0,-100.00,South,172,2.0,6.0,100,0.00,,,0.06,0.000000,,2013-12-06 05:02:00,
2013-12-06 00:10:00,54.0,54.0,-100.00,South,191,7.0,10.0,100,0.00,,,0.06,0.000000,,2013-12-06 05:10:00,
2013-12-06 00:43:00,54.0,54.0,-100.00,South,191,7.0,10.0,100,0.00,,,0.06,0.000000,,2013-12-06 05:43:00,
2013-12-06 00:53:00,54.0,54.0,-100.00,South,191,7.0,10.0,100,0.00,,,0.06,0.000000,,2013-12-06 05:53:00,
2013-12-06 01:03:00,54.0,54.0,-100.00,South,191,7.0,10.0,100,0.00,,,0.06,0.000000,,2013-12-06 06:03:00,
2013-12-06 01:10:00,55.0,55.0,-100.00,SSW,202,8.0,14.0,100,0.00,,,0.06,0.000000,,2013-12-06 06:10:00,
2013-12-06 01:42:00,55.0,55.0,-100.00,SSW,202,8.0,14.0,100,0.00,,,0.06,0.000000,,2013-12-06 06:42:00,
2013-12-06 01:52:00,55.0,55.0,-100.00,SSW,202,8.0,14.0,100,0.00,,,0.06,0.000000,,2013-12-06 06:52:00,
2013-12-06 02:02:00,55.0,55.0,-100.00,SSW,202,8.0,14.0,100,0.00,,,0.06,0.000000,,2013-12-06 07:02:00,
2013-12-06 02:10:00,55.0,55.0,-100.00,SSW,199,8.0,15.0,100,0.01,,,0.06,0.000000,,2013-12-06 07:10:00,
2013-12-06 02:42:00,55.0,55.0,-100.00,SSW,199,8.0,15.0,100,0.01,,,0.06,0.000000,,2013-12-06 07:42:00,
2013-12-06 02:52:00,55.0,55.0,-100.00,SSW,199,8.0,15.0,100,0.01,,,0.06,0.000000,,2013-12-06 07:52:00,
2013-12-06 03:02:00,55.0,55.0,-100.00,SSW,199,8.0,15.0,100,0.01,,,0.06,0.000000,,2013-12-06 08:02:00,
2013-12-06 03:10:00,56.0,56.0,-100.00,SSW,205,6.0,12.0,100,0.00,,,0.05,0.000000,,2013-12-06 08:10:00,
2013-12-06 03:42:00,56.0,56.0,-100.00,SSW,205,6.0,12.0,100,0.00,,,0.05,0.000000,,2013-12-06 08:42:00,
2013-12-06 03:52:00,56.0,56.0,-100.00,SSW,205,6.0,12.0,100,0.00,,,0.05,0.000000,,2013-12-06 08:52:00,
2013-12-06 04:02:00,56.0,56.0,-100.00,SSW,205,6.0,12.0,100,0.00,,,0.05,0.000000,,2013-12-06 09:02:00,
2013-12-06 04:10:00,57.0,57.0,-100.00,SW,220,7.0,11.0,100,0.00,,,0.05,0.000000,,2013-12-06 09:10:00,
2013-12-06 04:43:00,57.0,57.0,-100.00,SW,220,7.0,11.0,100,0.00,,,0.05,0.000000,,2013-12-06 09:43:00,
2013-12-06 04:54:00,57.0,57.0,-100.00,SW,220,7.0,11.0,100,0.00,,,0.05,0.000000,,2013-12-06 09:54:00,
2013-12-06 05:03:00,57.0,57.0,-100.00,SW,220,7.0,11.0,100,0.00,,,0.05,0.000000,,2013-12-06 10:03:00,
2013-12-06 05:10:00,57.0,57.0,-100.00,West,262,5.0,10.0,100,0.05,,,0.09,0.000000,,2013-12-06 10:10:00,
2013-12-06 05:43:00,57.0,57.0,-100.00,West,262,5.0,10.0,100,0.05,,,0.09,0.000000,,2013-12-06 10:43:00,
2013-12-06 05:53:00,57.0,57.0,-100.00,West,262,5.0,10.0,100,0.05,,,0.09,0.000000,,2013-12-06 10:53:00,
2013-12-06 06:02:00,57.0,57.0,-100.00,West,262,5.0,10.0,100,0.05,,,0.09,0.000000,,2013-12-06 11:02:00,
2013-12-06 06:10:00,45.0,45.0,-100.00,NNW,345,10.0,21.0,100,0.05,,,0.14,0.000000,,2013-12-06 11:10:00,
2013-12-06 06:42:00,45.0,45.0,-100.00,NNW,345,10.0,21.0,100,0.05,,,0.14,0.000000,,2013-12-06 11:42:00,
2013-12-06 06:54:00,45.0,45.0,-100.00,NNW,345,10.0,21.0,100,0.05,,,0.14,0.000000,,2013-12-06 11:54:00,
2013-12-06 07:02:00,45.0,45.0,-100.00,NNW,345,10.0,21.0,100,0.05,,,0.14,0.000000,,2013-12-06 12:02:00,
2013-12-06 07:10:00,43.0,43.0,-100.00,NNW,339,12.0,22.0,100,0.00,,,0.14,0.000000,,2013-12-06 12:10:00,
2013-12-06 07:42:00,43.0,43.0,-100.00,NNW,339,12.0,22.0,100,0.00,,,0.14,0.000000,,2013-12-06 12:42:00,
2013-12-06 07:52:00,43.0,43.0,-100.00,NNW,339,12.0,22.0,100,0.00,,,0.14,0.000000,,2013-12-06 12:52:00,
2013-12-06 08:02:00,43.0,43.0,-100.00,NNW,339,12.0,22.0,100,0.00,,,0.14,0.000000,,2013-12-06 13:02:00,
2013-12-06 08:10:00,42.0,42.0,-100.00,NNW,342,12.0,25.0,100,0.02,,,0.16,6.000000,,2013-12-06 13:10:00,
2013-12-06 08:42:00,42.0,42.0,-100.00,NNW,342,12.0,25.0,100,0.02,,,0.16,6.000000,,2013-12-06 13:42:00,
2013-12-06 08:52:00,42.0,42.0,-100.00,NNW,342,12.0,25.0,100,0.02,,,0.16,6.000000,,2013-12-06 13:52:00,
2013-12-06 09:02:00,42.0,42.0,-100.00,NNW,342,12.0,25.0,100,0.02,,,0.16,6.000000,,2013-12-06 14:02:00,
2013-12-06 09:10:00,42.0,42.0,-100.00,NNW,344,11.0,22.0,100,0.01,,,0.17,19.000000,,2013-12-06 14:10:00,
2013-12-06 09:42:00,42.0,42.0,-100.00,NNW,344,11.0,22.0,100,0.01,,,0.17,19.000000,,2013-12-06 14:42:00,
2013-12-06 09:53:00,42.0,42.0,-100.00,NNW,344,11.0,22.0,100,0.01,,,0.17,19.000000,,2013-12-06 14:53:00,
2013-12-06 10:02:00,42.0,42.0,-100.00,NNW,344,11.0,22.0,100,0.01,,,0.17,19.000000,,2013-12-06 15:02:00,
2013-12-06 10:10:00,41.0,41.0,-100.00,North,349,8.0,20.0,100,0.02,,,0.19,25.000000,,2013-12-06 15:10:00,
2013-12-06 10:44:00,41.0,41.0,-100.00,North,349,8.0,20.0,100,0.02,,,0.19,25.000000,,2013-12-06 15:44:00,
2013-12-06 10:54:00,41.0,41.0,-100.00,North,349,8.0,20.0,100,0.02,,,0.19,25.000000,,2013-12-06 15:54:00,
2013-12-06 11:03:00,41.0,41.0,-100.00,North,349,8.0,20.0,100,0.02,,,0.19,25.000000,,2013-12-06 16:03:00,
2013-12-06 11:10:00,39.0,39.0,-100.00,NNW,334,7.0,16.0,100,0.03,,,0.22,40.000000,,2013-12-06 16:10:00,
2013-12-06 11:43:00,39.0,39.0,-100.00,NNW,334,7.0,16.0,100,0.03,,,0.22,40.000000,,2013-12-06 16:43:00,
2013-12-06 11:53:00,39.0,39.0,-100.00,NNW,334,7.0,16.0,100,0.03,,,0.22,40.000000,,2013-12-06 16:53:00,
2013-12-06 12:03:00,39.0,39.0,-100.00,NNW,334,7.0,16.0,100,0.03,,,0.22,40.000000,,2013-12-06 17:03:00,
2013-12-06 12:10:00,39.0,39.0,-100.00,NNW,336,9.0,14.0,100,0.03,,,0.24,51.000000,,2013-12-06 17:10:00,
2013-12-06 12:43:00,39.0,39.0,-100.00,NNW,336,9.0,14.0,100,0.03,,,0.24,51.000000,,2013-12-06 17:43:00,
2013-12-06 12:52:00,39.0,39.0,-100.00,NNW,336,9.0,14.0,100,0.03,,,0.24,51.000000,,2013-12-06 17:52:00,
2013-12-06 13:02:00,39.0,39.0,-100.00,NNW,336,9.0,14.0,100,0.03,,,0.24,51.000000,,2013-12-06 18:02:00,
2013-12-06 13:10:00,39.0,39.0,-100.00,NNW,334,8.0,16.0,100,0.00,,,0.24,70.000000,,2013-12-06 18:10:00,
2013-12-06 13:42:00,39.0,39.0,-100.00,NNW,334,8.0,16.0,100,0.00,,,0.24,70.000000,,2013-12-06 18:42:00,
2013-12-06 13:52:00,39.0,39.0,-100.00,NNW,334,8.0,16.0,100,0.00,,,0.24,70.000000,,2013-12-06 18:52:00,
2013-12-06 14:02:00,39.0,39.0,-100.00,NNW,334,8.0,16.0,100,0.00,,,0.24,70.000000,,2013-12-06 19:02:00,
2013-12-06 14:10:00,39.0,39.0,-100.00,NNW,341,8.0,13.0,100,0.00,,,0.24,53.000000,,2013-12-06 19:10:00,
2013-12-06 14:42:00,39.0,39.0,-100.00,NNW,341,8.0,13.0,100,0.00,,,0.24,53.000000,,2013-12-06 19:42:00,
2013-12-06 14:52:00,39.0,39.0,-100.00,NNW,341,8.0,13.0,100,0.00,,,0.24,53.000000,,2013-12-06 19:52:00,
2013-12-06 15:02:00,39.0,39.0,-100.00,NNW,341,8.0,13.0,100,0.00,,,0.24,53.000000,,2013-12-06 20:02:00,
2013-12-06 15:10:00,38.0,38.0,-100.00,NNW,332,6.0,12.0,100,0.01,,,0.24,27.000000,,2013-12-06 20:10:00,
2013-12-06 15:42:00,38.0,38.0,-100.00,NNW,332,6.0,12.0,100,0.01,,,0.24,27.000000,,2013-12-06 20:42:00,
2013-12-06 15:52:00,38.0,38.0,-100.00,NNW,332,6.0,12.0,100,0.01,,,0.24,27.000000,,2013-12-06 20:52:00,
2013-12-06 16:02:00,38.0,38.0,-100.00,NNW,332,6.0,12.0,100,0.01,,,0.24,27.000000,,2013-12-06 21:02:00,
2013-12-06 16:10:00,36.0,34.0,-100.00,NW,313,6.0,12.0,91,0.01,,,0.25,17.000000,,2013-12-06 21:10:00,
2013-12-06 16:43:00,36.0,34.0,-100.00,NW,313,6.0,12.0,91,0.01,,,0.25,17.000000,,2013-12-06 21:43:00,
2013-12-06 16:54:00,36.0,34.0,-100.00,NW,313,6.0,12.0,91,0.01,,,0.25,17.000000,,2013-12-06 21:54:00,
2013-12-06 17:03:00,36.0,34.0,-100.00,NW,313,6.0,12.0,91,0.01,,,0.25,17.000000,,2013-12-06 22:03:00,
2013-12-06 17:10:00,36.0,33.0,-100.00,NNW,334,8.0,13.0,90,0.01,,,0.26,1.000000,,2013-12-06 22:10:00,
2013-12-06 17:42:00,36.0,33.0,-100.00,NNW,334,8.0,13.0,90,0.01,,,0.26,1.000000,,2013-12-06 22:42:00,
2013-12-06 17:53:00,36.0,33.0,-100.00,NNW,334,8.0,13.0,90,0.01,,,0.26,1.000000,,2013-12-06 22:53:00,
2013-12-06 18:02:00,36.0,33.0,-100.00,NNW,334,8.0,13.0,90,0.01,,,0.26,1.000000,,2013-12-06 23:02:00,
2013-12-06 18:10:00,35.0,33.0,-100.00,NNW,334,9.0,14.0,92,0.04,,,0.30,0.000000,,2013-12-06 23:10:00,
2013-12-06 18:42:00,35.0,33.0,-100.00,NNW,334,9.0,14.0,92,0.04,,,0.30,0.000000,,2013-12-06 23:42:00,
2013-12-06 18:52:00,35.0,33.0,-100.00,NNW,334,9.0,14.0,92,0.04,,,0.30,0.000000,,2013-12-06 23:52:00,
2013-12-06 19:02:00,35.0,33.0,-100.00,NNW,334,9.0,14.0,92,0.04,,,0.30,0.000000,,2013-12-07 00:02:00,
2013-12-06 19:10:00,34.0,34.0,-100.00,NNW,343,10.0,17.0,98,0.07,,,0.36,0.000000,,2013-12-07 00:10:00,
2013-12-06 19:42:00,34.0,34.0,-100.00,NNW,343,10.0,17.0,98,0.07,,,0.36,0.000000,,2013-12-07 00:42:00,
2013-12-06 19:52:00,34.0,34.0,-100.00,NNW,343,10.0,17.0,98,0.07,,,0.36,0.000000,,2013-12-07 00:52:00,
2013-12-06 20:02:00,34.0,34.0,-100.00,NNW,343,10.0,17.0,98,0.07,,,0.36,0.000000,,2013-12-07 01:02:00,
2013-12-06 20:10:00,33.0,33.0,-100.00,North,349,7.0,17.0,100,0.17,,,0.53,0.000000,,2013-12-07 01:10:00,
2013-12-06 20:42:00,33.0,33.0,-100.00,North,349,7.0,17.0,100,0.17,,,0.53,0.000000,,2013-12-07 01:42:00,
2013-12-06 20:52:00,33.0,33.0,-100.00,North,349,7.0,17.0,100,0.17,,,0.53,0.000000,,2013-12-07 01:52:00,
2013-12-06 21:01:00,33.0,33.0,-100.00,North,349,7.0,17.0,100,0.17,,,0.53,0.000000,,2013-12-07 02:01:00,
2013-12-06 21:10:00,33.0,33.0,-100.00,North,356,6.0,16.0,100,0.12,,,0.65,0.000000,,2013-12-07 02:10:00,
2013-12-06 21:42:00,33.0,33.0,-100.00,North,356,6.0,16.0,100,0.12,,,0.65,0.000000,,2013-12-07 02:42:00,
2013-12-06 21:53:00,33.0,33.0,-100.00,North,356,6.0,16.0,100,0.12,,,0.65,0.000000,,2013-12-07 02:53:00,
2013-12-06 22:02:00,33.0,33.0,-100.00,North,356,6.0,16.0,100,0.12,,,0.65,0.000000,,2013-12-07 03:02:00,
2013-12-06 22:10:00,33.0,33.0,-100.00,North,350,8.0,18.0,100,0.07,,,0.72,0.000000,,2013-12-07 03:10:00,
2013-12-06 22:43:00,33.0,33.0,-100.00,North,350,8.0,18.0,100,0.07,,,0.72,0.000000,,2013-12-07 03:43:00,
2013-12-06 22:53:00,33.0,33.0,-100.00,North,350,8.0,18.0,100,0.07,,,0.72,0.000000,,2013-12-07 03:53:00,
2013-12-06 23:03:00,33.0,33.0,-100.00,North,350,8.0,18.0,100,0.07,,,0.72,0.000000,,2013-12-07 04:03:00,
2013-12-06 23:10:00,33.0,33.0,-100.00,NW,319,7.0,19.0,100,0.09,,,0.81,0.000000,,2013-12-07 04:10:00,
2013-12-06 23:43:00,33.0,33.0,-100.00,NW,319,7.0,19.0,100,0.09,,,0.81,0.000000,,2013-12-07 04:43:00,
2013-12-06 23:53:00,33.0,33.0,-100.00,NW,319,7.0,19.0,100,0.09,,,0.81,0.000000,,2013-12-07 04:53:00,